DECAYED

STARLINK-1374, 45545 (Decayed)

Orbit data source: Space-Track

STARLINK-1374, 45545 was a payload satellite owned by SpaceX/Seattle (US) in LEO that was launched on Wed, 22 Apr 2020 UTC via an FALCON 9 launch vehicle from the Air Force Eastern Test Range (AFETR). Payload-class satellites include a variety of spacecraft equipped with specific instruments for various scientific and technological missions. These include communications satellites like Starlink; space stations such as the ISS; scientific satellites like the Hubble; Earth observation satellites from companies like Planet Labs, Umbra, and HawkEye 360; GPS; miniature CubeSats for education and research; and military/defense satellites.

Not visible in the next 10 days
Identifier
45545, 2020-025Q
Orbit
Decayed
Country
Flag of USUS
Related business
Manufacturer
SpaceX/Seattle
Mission
Decayed Commercial Communications
Bus & Motor
STARLINK, Unknown motor
Mass
260 kg wet, ~248 kg dry
Launch date (UTC)
2020-04-22 (6 years ago)
Launch vehicle
FALCON 9
Launch site
Air Force Eastern Test Range (AFETR)
Object type
Payload
Rocket body
Debris
Shape & HBR
Box + 1 Pan, 10.1 m
Radar Cross Section
13.562 m², Large (>1 m²)

Expand to show TLE details & history
Last TLE update: 11 months ago

TLE from 11 months ago
0 STARLINK-1374
1 45545U 20025Q   25053.32747775  .12637540  12492-4  36935-3 0  9998
2 45545  53.0216 323.3699 0006709 267.1070 195.7690 16.44852345267882
Epoch: 2025-02-22T07:51Z
TLE epoch observation values (Epoch: 2025-02-22T07:51:34.077Z)
Latitude
51.3117°
Longitude
163.80107°
Altitude
163.195 km
Speed
7.812 km/s
True Right ascension
04h 56m 40s
True Declination
51° 07' 43"
Sunlit
Object was in full shadow at epoch
Visualization orbit readout
Latitude
Unknown
Longitude
Unknown
Altitude
Unknown
Speed
Unknown
Apparent Right ascension
Unknown
Apparent Declination
Unknown
Sunlit
N/A
Visualization observer readout
Local Sidereal Time
02:43:06
Azimuth
Unknown
Elevation
Unknown
Doppler factor
Unknown
Orbital elements
Apogee altitude
157.6 km
Perigee altitude
148.837 km
Semi-major axis
6,531.355 km
Eccentricity
0.00067
Inclination
53.0216°
RAAN
323.3699°
Arg. of periapsis
267.107°
True anomaly
195.74812°
Mean anomaly
195.769°
Eccentric anomaly
195.75856°
Mean motion
4.11186 °/min
Orbital period
87.55 mins
BSTAR
0.00036935
Loading maneuver chart data...
Computing Atmospheric mass density...
Loading historical data...
Loading historical data...
Loading historical data...
Loading historical data...
Loading historical data...
Loading historical data...
Loading historical data...

Documentation

Showing up to 5 results
|